Weather in Verkhnyaya Sokovninka

Russia / Kursk Oblast     51°56′05″N   35°14′09″E
temp.,
°C
wind,
m/s
gust,
m/s
humid.,
%
clouds,
%
prec.,
mm/h
press.,
hPa
HPBL,
m
7 march, sun
sun700:00−11w34930 0.0 102156
03:00−11wsw47910 0.0 1020130
06:00−9sw614890 0.0 1017289
09:00−6sw9178149 0.0 1014584
12:00−3wsw101782100 0.0 10101028
15:00−1wsw121890100 0.2 10061287
18:00−1wsw111890100 0.3 10041199
21:000w101792100 0.6 10041074
8 march, mon
mon800:00−3w4108599 1.3 1005352
03:00−4wsw499299 1.4 1004268
06:00−5wsw51095100 0.0 1004300
09:00−4w51195100 0.2 1005590
12:00−3wnw6982100 0.1 10061164
15:00−3w6881100 0.3 10071097
18:00−5w4889100 0.3 1008262
21:00−7nw479098 0.4 1010133
9 march, tue
tue900:00−11nw359458 0.0 101286
03:00−12nw349559 0.0 101358
06:00−12wnw339658 0.0 101574
09:00−11nw479579 0.1 1017272
12:00−9nw469094 0.0 1018519
15:00−7nw468597 0.1 1019822
18:00−10nw3487100 0.1 102052
21:00−13nw338750 0.1 102322
10 march, wed
wed1000:00−15nnw23890 0.0 102320
03:00−16nnw22920 0.0 102420
06:00−18nnw11950 0.0 102520
09:00−14e009322 0.0 102627
12:00−11ssw1187100 0.0 1026233
15:00−8ssw1282100 0.0 1026367
18:00−11s2289100 0.0 102521
21:00−12s239096 0.0 102621
11 march, thu
thu1100:00−13s238987 0.0 102720
03:00−14sse238874 0.0 102720
06:00−14sse33899 0.0 102727
09:00−12sse35908 0.0 1027134
12:00−6s478599 0.0 1027384
15:00−4s487894 0.0 1026785
18:00−6s44830 0.0 102468
21:00−8sse511795 0.0 1023152